TimeCDT,TemperatureF,Dew PointF,Humidity,Sea Level PressureIn,VisibilityMPH,Wind Direction,Wind SpeedMPH,Gust SpeedMPH,PrecipitationIn,Events,Conditions,WindDirDegrees,DateUTC
12:15 AM,37.4,32.0,81,29.99,10.0,NNW,11.5,-,N/A,,Overcast,330,2012-10-11 05:15:00
12:35 AM,37.4,32.0,81,30.00,10.0,NNW,9.2,-,N/A,,Overcast,330,2012-10-11 05:35:00
12:55 AM,37.4,30.2,75,30.00,10.0,NNW,10.4,-,N/A,,Overcast,330,2012-10-11 05:55:00
1:15 AM,37.4,30.2,75,30.01,10.0,NNW,9.2,-,N/A,,Overcast,330,2012-10-11 06:15:00
1:35 AM,37.4,30.2,75,30.01,10.0,NNW,8.1,-,N/A,,Overcast,340,2012-10-11 06:35:00
1:55 AM,37.4,28.4,70,30.02,10.0,NNW,9.2,-,N/A,,Overcast,330,2012-10-11 06:55:00
2:15 AM,35.6,26.6,70,30.03,10.0,NNW,9.2,-,N/A,,Scattered Clouds,330,2012-10-11 07:15:00
2:55 AM,35.6,26.6,70,30.05,10.0,NW,10.4,-,N/A,,Clear,320,2012-10-11 07:55:00
3:15 AM,33.8,26.6,75,30.06,10.0,NW,9.2,-,N/A,,Clear,310,2012-10-11 08:15:00
3:35 AM,32.0,26.6,80,30.06,10.0,WNW,9.2,-,N/A,,Clear,300,2012-10-11 08:35:00
3:55 AM,32.0,26.6,80,30.07,10.0,NW,9.2,-,N/A,,Clear,310,2012-10-11 08:55:00
4:15 AM,32.0,26.6,80,30.08,10.0,NW,10.4,-,N/A,,Clear,310,2012-10-11 09:15:00
4:35 AM,32.0,26.6,80,30.08,10.0,NW,9.2,-,N/A,,Clear,310,2012-10-11 09:35:00
4:55 AM,32.0,26.6,80,30.09,10.0,NW,10.4,-,N/A,,Clear,320,2012-10-11 09:55:00
5:15 AM,32.0,24.8,75,30.10,10.0,NW,10.4,-,N/A,,Clear,310,2012-10-11 10:15:00
5:35 AM,32.0,24.8,75,30.11,10.0,NW,12.7,-,N/A,,Clear,310,2012-10-11 10:35:00
5:55 AM,32.0,24.8,75,30.12,10.0,NW,10.4,17.3,N/A,,Clear,310,2012-10-11 10:55:00
6:15 AM,32.0,24.8,75,30.12,10.0,NW,11.5,-,N/A,,Clear,310,2012-10-11 11:15:00
6:35 AM,32.0,24.8,75,30.13,10.0,WNW,10.4,-,N/A,,Clear,300,2012-10-11 11:35:00
6:55 AM,32.0,24.8,75,30.14,10.0,WNW,9.2,-,N/A,,Clear,300,2012-10-11 11:55:00
7:15 AM,32.0,24.8,75,30.14,10.0,NW,10.4,-,N/A,,Clear,310,2012-10-11 12:15:00
7:35 AM,32.0,23.0,69,30.15,10.0,NW,10.4,-,N/A,,Clear,310,2012-10-11 12:35:00
7:55 AM,32.0,23.0,69,30.16,10.0,NW,11.5,17.3,N/A,,Clear,310,2012-10-11 12:55:00
8:15 AM,32.0,23.0,69,30.18,10.0,NW,11.5,-,N/A,,Clear,310,2012-10-11 13:15:00
8:35 AM,32.0,23.0,69,30.19,10.0,NW,12.7,-,N/A,,Clear,310,2012-10-11 13:35:00
8:55 AM,32.0,24.8,75,30.20,10.0,NW,12.7,-,N/A,,Clear,320,2012-10-11 13:55:00
9:15 AM,33.8,24.8,70,30.21,10.0,NW,13.8,18.4,N/A,,Clear,320,2012-10-11 14:15:00
9:35 AM,33.8,24.8,70,30.22,10.0,NW,15.0,20.7,N/A,,Clear,310,2012-10-11 14:35:00
9:55 AM,35.6,24.8,65,30.22,10.0,NNW,16.1,19.6,N/A,,Clear,330,2012-10-11 14:55:00
10:15 AM,35.6,24.8,65,30.23,10.0,NW,17.3,24.2,N/A,,Clear,320,2012-10-11 15:15:00
10:35 AM,37.4,24.8,60,30.24,10.0,NNW,15.0,20.7,N/A,,Clear,330,2012-10-11 15:35:00
10:55 AM,37.4,24.8,60,30.25,10.0,NNW,15.0,20.7,N/A,,Clear,330,2012-10-11 15:55:00
11:15 AM,37.4,24.8,60,30.25,10.0,NNW,15.0,23.0,N/A,,Clear,340,2012-10-11 16:15:00
11:35 AM,37.4,24.8,60,30.26,10.0,NNW,18.4,23.0,N/A,,Scattered Clouds,340,2012-10-11 16:35:00
11:55 AM,39.2,24.8,56,30.27,10.0,NNW,17.3,24.2,N/A,,Scattered Clouds,340,2012-10-11 16:55:00
12:15 PM,37.4,24.8,60,30.28,10.0,NNW,17.3,20.7,N/A,,Scattered Clouds,330,2012-10-11 17:15:00
12:55 PM,39.2,24.8,56,30.28,10.0,NNW,15.0,-,N/A,,Mostly Cloudy,330,2012-10-11 17:55:00
1:15 PM,39.2,24.8,56,30.28,10.0,NNW,17.3,24.2,N/A,,Mostly Cloudy,330,2012-10-11 18:15:00
1:35 PM,39.2,24.8,56,30.28,10.0,NW,11.5,26.5,N/A,,Mostly Cloudy,310,2012-10-11 18:35:00
1:55 PM,41.0,24.8,53,30.28,10.0,NNW,11.5,-,N/A,,Mostly Cloudy,340,2012-10-11 18:55:00
2:15 PM,41.0,24.8,53,30.28,10.0,NNW,15.0,-,N/A,,Mostly Cloudy,340,2012-10-11 19:15:00
2:35 PM,41.0,24.8,53,30.28,10.0,NNW,11.5,19.6,N/A,,Scattered Clouds,330,2012-10-11 19:35:00
2:55 PM,41.0,24.8,53,30.29,10.0,NW,13.8,20.7,N/A,,Scattered Clouds,310,2012-10-11 19:55:00
3:15 PM,41.0,24.8,53,30.29,10.0,NW,17.3,-,N/A,,Partly Cloudy,320,2012-10-11 20:15:00
3:55 PM,42.8,23.0,46,30.30,10.0,NW,13.8,17.3,N/A,,Partly Cloudy,310,2012-10-11 20:55:00
4:15 PM,42.8,24.8,49,30.31,10.0,North,10.4,17.3,N/A,,Partly Cloudy,360,2012-10-11 21:15:00
4:35 PM,42.8,24.8,49,30.31,10.0,NNW,11.5,-,N/A,,Clear,330,2012-10-11 21:35:00
5:15 PM,41.0,21.2,45,30.32,10.0,North,10.4,-,N/A,,Clear,350,2012-10-11 22:15:00
5:35 PM,41.0,23.0,49,30.32,10.0,NNW,10.4,16.1,N/A,,Clear,330,2012-10-11 22:35:00
5:55 PM,41.0,23.0,49,30.32,10.0,NNW,10.4,-,N/A,,Clear,340,2012-10-11 22:55:00
6:35 PM,39.2,23.0,52,30.33,10.0,North,4.6,-,N/A,,Clear,350,2012-10-11 23:35:00
6:55 PM,37.4,24.8,60,30.33,10.0,North,4.6,-,N/A,,Clear,350,2012-10-11 23:55:00
7:15 PM,35.6,23.0,60,30.34,10.0,NNW,3.5,-,N/A,,Clear,330,2012-10-12 00:15:00
7:35 PM,32.0,24.8,75,30.34,10.0,Calm,Calm,-,N/A,,Clear,0,2012-10-12 00:35:00
8:15 PM,32.0,24.8,75,30.35,10.0,Calm,Calm,-,N/A,,Clear,0,2012-10-12 01:15:00
8:35 PM,28.4,24.8,86,30.35,10.0,South,3.5,-,N/A,,Clear,190,2012-10-12 01:35:00
8:55 PM,26.6,24.8,93,30.35,10.0,SSW,3.5,-,N/A,,Clear,210,2012-10-12 01:55:00
9:15 PM,26.6,24.8,93,30.36,10.0,Calm,Calm,-,N/A,,Clear,0,2012-10-12 02:15:00
9:55 PM,26.6,23.0,86,30.36,10.0,SW,3.5,-,N/A,,Clear,220,2012-10-12 02:55:00
10:15 PM,26.6,23.0,86,30.36,10.0,Calm,Calm,-,N/A,,Clear,0,2012-10-12 03:15:00
10:55 PM,24.8,23.0,93,30.36,10.0,SSW,3.5,-,N/A,,Clear,200,2012-10-12 03:55:00
11:15 PM,26.6,23.0,86,30.36,10.0,South,3.5,-,N/A,,Clear,190,2012-10-12 04:15:00
11:35 PM,24.8,23.0,93,30.36,10.0,SSW,4.6,-,N/A,,Clear,210,2012-10-12 04:35:00
11:55 PM,24.8,23.0,93,30.36,10.0,SW,3.5,-,N/A,,Clear,230,2012-10-12 04:55:00